Regional Weather Roundup
Issued by NWS

Home | Current Version | Previous Version | Text Only | Print | Product List | Glossary On
Versions: 1 2 3 4 5 6 7 8 9 10 11 12 13 14 15 16 17 18 19 20 21 22 23 24 25 26 27 28 29 30 31 32 33 34 35 36 37 38 39 40 41 42 43 44 45 46 47 48 49 50
000
ASUS43 KLMK 281710
RWRKY
KENTUCKY REGIONAL WEATHER ROUNDUP
NATIONAL WEATHER SERVICE LOUISVILLE KY
1200 PM EST WED JAN 28 2015

NOTE "FAIR" INDICATES FEW OR NO CLOUDS BELOW 12,000 FEET
WITH NO SIGNIFICANT WEATHER AND/OR OBSTRUCTIONS TO VISIBILITY.

KYZ001>023-026-027-061>063-070>075-281800-
WESTERN AND SOUTH CENTRAL KENTUCKY

CITY           SKY/WX    TMP DP  RH WIND       PRES   REMARKS
PADUCAH        SUNNY     40  30  67 SE9       30.30S WCI  34
HENDERSON      SUNNY     36  21  55 SE12      30.32F WCI  27
OWENSBORO      SUNNY     35  19  52 SE13      30.33F WCI  26
HOPKINSVILLE   SUNNY     39  23  53 E10       30.31F WCI  32
BOWLING GREEN  SUNNY     37  16  42 E7        30.35F WCI  32
GLASGOW        SUNNY     35  14  41 SE3       30.35F
$$

KYZ024-025-028>034-038-045-046-053-281800-
NORTH CENTRAL KENTUCKY

CITY           SKY/WX    TMP DP  RH WIND       PRES   REMARKS
LOUISVILLE/SDF PTSUNNY   32  11  41 SE9       30.37S WCI  24
LOUISVILLE/LOU SUNNY     31  12  45 E6        30.37F WCI  25
FORT KNOX      SUNNY     32  14  47 SE9       30.33F WCI  24
$$

KYZ035>037-039>044-047>052-055>060-089>105-281800-
NORTHEAST KENTUCKY

CITY           SKY/WX    TMP DP  RH WIND       PRES   REMARKS
LEXINGTON      SUNNY     28  15  58 SE9       30.36F WCI  19
COVINGTON      MOSUNNY   29  15  56 S7        30.36F WCI  22
FRANKFORT      SUNNY     30  16  56 MISG      30.36F
$$

KYZ054-064>069-076>088-106>120-281800-
SOUTHEAST KENTUCKY

CITY           SKY/WX    TMP DP  RH WIND       PRES   REMARKS
JACKSON        SUNNY     27  15  61 VRB5      30.33F WCI  22
LONDON         SUNNY     30  13  49 CALM      30.35F
SOMERSET       SUNNY     32  16  51 E3        30.37F
MIDDLESBORO    SUNNY     32  16  50 CALM      30.34F
MONTICELLO     SUNNY     33  16  50 VRB3      30.38F
$$




USA.gov is the U.S. government's official web portal to all federal, state and local government web resources and services.